Weather History for Livingston, MT

Change the Weather History Date:

Monday, May 20, 2013

  Actual Average Record
Temperature  
Mean Temperature 54 °F 52 °F  
Max Temperature 60 °F 66 °F 89 °F (1958)
Min Temperature 46 °F 38 °F 22 °F (2003)
Degree Days  
Heating Degree Days 12    
Cooling Degree Days 0 0  
Month to date cooling degree days 0  
Year to date cooling degree days 0  
Growing Degree Days 4 (Base 50)    
Moisture  
Dew Point 44 °F    
Average Humidity 77    
Maximum Humidity 90    
Minimum Humidity 57    
Precipitation  
Precipitation 0.17 in 0.09 in 0.86 in (1973)
Month to date precipitation 1.61  
Year to date precipitation 5.21  
Sea Level Pressure  
Sea Level Pressure 30.14 in    
Wind  
Wind Speed 8 mph (WSW)    
Max Wind Speed 17 mph    
Max Gust Speed 23 mph    
Visibility 9 miles    
Events Rain , Thunderstorm    
T = Trace of Precipitation, MM = Missing Value Source: NWS Daily Summary

Daily Weather History Graph

Daily Weather History Graph

Search for Another Location

Airport:

Trip Planner

Search our weather history database for the weather conditions in past years. The results will help you decide how hot, cold, wet, or windy it might be!

Date:

Astronomy

May. 20, 2013 Rise Set
Actual Time 5:44 AM MDT 8:52 PM MDT
Civil Twilight 5:09 AM MDT 9:28 PM MDT
Nautical Twilight 4:23 AM MDT 10:14 PM MDT
Astronomical Twilight 3:27 AM MDT 11:10 PM MDT
Moon 3:50 PM MDT (5/20) 2:57 AM MDT (5/20)
Length of Visible Light 16h 18m
Length of Day
15h 07m
Waxing Gibbous, 75% of the Moon is Illuminated
May 20
Waxing Gibbous
May 24
Full
May 31
Last Quarter
Jun 8
New
Jun 16
First Quarter

Hourly Weather History & Observations

Time (MDT) Temp. Windchill Dew Point Humidity Pressure Visibility Wind Dir Wind Speed Gust Speed Precip Events Conditions
12:53 AM 48.9 °F - 44.1 °F 83% 30.10 in 10.0 mi WNW 6.9 mph - N/A   Overcast
1:53 AM 48.9 °F - 43.0 °F 80% 30.10 in 10.0 mi WNW 8.1 mph - N/A   Overcast
2:53 AM 48.9 °F - 43.0 °F 80% 30.10 in 10.0 mi West 4.6 mph - N/A   Overcast
3:53 AM 48.9 °F - 43.0 °F 80% 30.11 in 10.0 mi West 6.9 mph - 0.00 in   Overcast
6:53 AM 48.0 °F - 44.1 °F 86% 30.15 in 10.0 mi NW 6.9 mph - 0.00 in   Overcast
7:36 AM 48.2 °F - 44.6 °F 87% 30.17 in 10.0 mi WNW 8.1 mph - 0.00 in Rain Light Rain
7:45 AM 48.2 °F - 44.6 °F 87% 30.17 in 10.0 mi WNW 9.2 mph - 0.00 in Rain Light Rain
8:53 AM 51.1 °F - 45.0 °F 80% 30.16 in 10.0 mi NW 8.1 mph - N/A   Overcast
9:53 AM 53.1 °F - 45.0 °F 74% 30.16 in 10.0 mi NW 11.5 mph - N/A   Mostly Cloudy
10:53 AM 53.1 °F - 44.1 °F 71% 30.16 in 10.0 mi NNW 9.2 mph - N/A   Overcast
11:53 AM 54.0 °F - 44.1 °F 69% 30.14 in 10.0 mi SSW 9.2 mph - N/A   Overcast
12:53 PM 55.9 °F - 44.1 °F 64% 30.13 in 10.0 mi SW 11.5 mph - 0.00 in   Overcast
1:53 PM 53.1 °F - 43.0 °F 69% 30.14 in 7.0 mi NW 17.3 mph 23.0 mph 0.01 in Rain Light Rain
2:53 PM 55.0 °F - 46.0 °F 72% 30.13 in 10.0 mi South 9.2 mph - 0.02 in   Overcast
3:53 PM 59.0 °F - 45.0 °F 60% 30.12 in 10.0 mi SW 11.5 mph - N/A   Mostly Cloudy
4:53 PM 57.0 °F - 43.0 °F 59% 30.11 in 10.0 mi SSW 6.9 mph - N/A   Overcast
5:53 PM 57.0 °F - 42.1 °F 57% 30.09 in 10.0 mi South 13.8 mph - N/A   Partly Cloudy
6:45 PM 51.8 °F - 44.6 °F 76% 30.16 in 7.0 mi NNE 15.0 mph - 0.00 in Rain Light Rain
6:53 PM 48.9 °F - 45.0 °F 86% 30.14 in 1.2 mi East 11.5 mph - 0.12 in Rain Heavy Rain
7:04 PM 50.0 °F - 46.4 °F 87% 30.16 in 3.0 mi SE 10.4 mph - 0.05 in Rain Light Rain
7:13 PM 50.0 °F - 44.6 °F 82% 30.16 in 10.0 mi SE 11.5 mph - 0.05 in Rain , Thunderstorm Light Thunderstorms and Rain
7:28 PM 50.0 °F - 44.6 °F 82% 30.16 in 3.0 mi SSE 15.0 mph 21.9 mph 0.07 in Rain Light Rain
7:38 PM 51.8 °F - 44.6 °F 76% 30.15 in 2.5 mi SSE 12.7 mph 21.9 mph 0.10 in Rain Heavy Rain
8:53 PM 48.9 °F - 45.0 °F 86% 30.13 in 10.0 mi Calm Calm - N/A   Overcast
9:53 PM 48.9 °F - 44.1 °F 83% 30.14 in 10.0 mi Calm Calm - N/A   Overcast
10:53 PM 48.9 °F - 46.0 °F 90% 30.14 in 10.0 mi Calm Calm - 0.02 in   Overcast
11:53 PM 46.0 °F 43.9 °F 42.1 °F 86% 30.12 in 10.0 mi SE 4.6 mph - N/A   Clear